• In Hungary
  • List of Countries
  • For 7 days
  • Water Temperature
  • Satellite Maps
  • Weather Map
  • News
  • Weather Widgets
  • user-avatar
    Login

    Hourly Weather Poyarkovo

    Today, 18 June, Monday

    Time Temperature Precipitation Wind Pressure Humidity
    00:00 +15°C° 0 mm 1 mps 751 mmHg 73%
    01:00 +15°C° 0 mm 1 mps 751 mmHg 75%
    02:00 +14°C° 0 mm 1 mps 751 mmHg 78%
    03:00 +13°C° 0 mm 1 mps 751 mmHg 81%
    04:00 +14°C° 0 mm 1 mps 751 mmHg 80%
    05:00 +16°C° 0 mm 1 mps 751 mmHg 79%
    06:00 +18°C° 0 mm 1 mps 751 mmHg 78%
    07:00 +19°C° 0 mm 1 mps 751 mmHg 73%
    08:00 +21°C° 0 mm 1 mps 751 mmHg 69%
    09:00 +23°C° 0 mm 1 mps 751 mmHg 63%
    10:00 +25°C° 0 mm 1 mps 751 mmHg 58%
    11:00 +26°C° 0 mm 1 mps 751 mmHg 53%
    12:00 +27°C° 0 mm 1 mps 751 mmHg 49%
    13:00 +27°C° 0 mm 1 mps 750 mmHg 48%
    14:00 +25°C° 0 mm 0 mps 750 mmHg 47%
    15:00 +26°C° 0 mm 0 mps 750 mmHg 46%
    16:00 +27°C° 0 mm 1 mps 750 mmHg 50%
    17:00 +27°C° 0 mm 1 mps 750 mmHg 54%
    18:00 +27°C° 0 mm 1 mps 750 mmHg 58%
    19:00 +25°C° 0 mm 1 mps 750 mmHg 61%
    20:00 +23°C° 0 mm 1 mps 750 mmHg 64%
    21:00 +21°C° 0 mm 1 mps 749 mmHg 67%
    22:00 +20°C° 0 mm 1 mps 749 mmHg 68%
    23:00 +18°C° 0 mm 2 mps 749 mmHg 70%

    Tomorrow, 19 June, Tuesday

    Time Temperature Precipitation Wind Pressure Humidity
    00:00 +18°C° 0 mm 2 mps 749 mmHg 72%
    01:00 +17°C° 0 mm 2 mps 750 mmHg 73%
    02:00 +17°C° 0 mm 2 mps 750 mmHg 75%
    03:00 +16°C° 0 mm 2 mps 750 mmHg 76%
    04:00 +17°C° 0 mm 2 mps 750 mmHg 77%
    05:00 +17°C° 0 mm 2 mps 749 mmHg 78%
    06:00 +18°C° 0 mm 2 mps 749 mmHg 79%
    07:00 +20°C° 0 mm 2 mps 749 mmHg 75%
    08:00 +21°C° 0 mm 3 mps 749 mmHg 72%
    09:00 +24°C° 0 mm 3 mps 749 mmHg 68%
    10:00 +24°C° 0.2 mm 3 mps 749 mmHg 68%
    11:00 +25°C° 0.2 mm 4 mps 749 mmHg 69%
    12:00 +25°C° 0.2 mm 4 mps 749 mmHg 69%
    13:00 +25°C° 0.2 mm 4 mps 749 mmHg 71%
    14:00 +25°C° 0.2 mm 4 mps 748 mmHg 72%
    15:00 +23°C° 0.2 mm 4 mps 748 mmHg 74%
    16:00 +25°C° 0.2 mm 4 mps 748 mmHg 75%
    17:00 +25°C° 0.2 mm 4 mps 747 mmHg 76%
    18:00 +25°C° 0.2 mm 4 mps 747 mmHg 76%
    19:00 +23°C° 0.1 mm 4 mps 747 mmHg 81%
    20:00 +21°C° 0.1 mm 4 mps 747 mmHg 86%
    21:00 +20°C° 0.1 mm 3 mps 747 mmHg 90%
    22:00 +19°C° 0 mm 3 mps 747 mmHg 91%
    23:00 +19°C° 0 mm 4 mps 746 mmHg 92%

    Day after tomorrow, 20 June, Wednesday

    Time Temperature Precipitation Wind Pressure Humidity
    00:00 +18°C° 0 mm 4 mps 746 mmHg 93%
    01:00 +18°C° 0 mm 4 mps 746 mmHg 93%
    02:00 +18°C° 0 mm 4 mps 746 mmHg 94%
    03:00 +17°C° 0 mm 4 mps 746 mmHg 95%
    04:00 +18°C° 0 mm 4 mps 746 mmHg 93%
    05:00 +18°C° 0 mm 4 mps 747 mmHg 91%
    06:00 +18°C° 0 mm 4 mps 747 mmHg 89%
    07:00 +19°C° 0 mm 5 mps 747 mmHg 84%
    08:00 +20°C° 0 mm 5 mps 747 mmHg 78%
    09:00 +21°C° 0 mm 5 mps 747 mmHg 73%
    10:00 +22°C° 0 mm 5 mps 747 mmHg 70%
    11:00 +22°C° 0 mm 6 mps 747 mmHg 67%
    12:00 +23°C° 0 mm 6 mps 747 mmHg 64%
    13:00 +23°C° 0 mm 6 mps 747 mmHg 61%
    14:00 +23°C° 0 mm 6 mps 747 mmHg 59%
    15:00 +23°C° 0 mm 6 mps 748 mmHg 56%
    16:00 +23°C° 0 mm 5 mps 748 mmHg 59%
    17:00 +23°C° 0 mm 4 mps 747 mmHg 62%
    18:00 +22°C° 0 mm 4 mps 747 mmHg 65%
    19:00 +21°C° 0 mm 3 mps 748 mmHg 69%
    20:00 +19°C° 0 mm 3 mps 748 mmHg 72%
    21:00 +17°C° 0 mm 3 mps 748 mmHg 76%
    22:00 +16°C° 0 mm 3 mps 748 mmHg 78%
    23:00 +16°C° 0 mm 3 mps 749 mmHg 80%

    21 June, Thursday

    Time Temperature Precipitation Wind Pressure Humidity
    00:00 +14°C° 0 mm 3 mps 749 mmHg 82%
    01:00 +14°C° 0 mm 3 mps 749 mmHg 85%
    02:00 +13°C° 0 mm 3 mps 749 mmHg 88%
    03:00 +13°C° 0 mm 3 mps 749 mmHg 91%
    04:00 +14°C° 0 mm 3 mps 749 mmHg 88%
    05:00 +14°C° 0 mm 3 mps 749 mmHg 86%
    06:00 +16°C° 0 mm 3 mps 749 mmHg 84%
    07:00 +17°C° 0 mm 3 mps 749 mmHg 78%
    08:00 +19°C° 0 mm 3 mps 749 mmHg 73%
    09:00 +21°C° 0 mm 3 mps 749 mmHg 68%
    10:00 +22°C° 0 mm 4 mps 749 mmHg 64%
    11:00 +23°C° 0 mm 4 mps 749 mmHg 61%
    12:00 +23°C° 0 mm 5 mps 749 mmHg 57%
    13:00 +25°C° 0 mm 5 mps 748 mmHg 57%
    14:00 +25°C° 0 mm 5 mps 748 mmHg 57%
    15:00 +25°C° 0 mm 5 mps 748 mmHg 57%
    16:00 +25°C° 0 mm 4 mps 748 mmHg 61%
    17:00 +25°C° 0 mm 4 mps 748 mmHg 64%
    18:00 +25°C° 0 mm 3 mps 748 mmHg 67%
    19:00 +22°C° 0 mm 3 mps 748 mmHg 72%
    20:00 +21°C° 0 mm 3 mps 748 mmHg 78%
    21:00 +19°C° 0 mm 2 mps 748 mmHg 83%
    22:00 +18°C° 0 mm 2 mps 748 mmHg 85%
    23:00 +18°C° 0 mm 2 mps 748 mmHg 87%

    22 June, Friday

    Time Temperature Precipitation Wind Pressure Humidity
    00:00 +17°C° 0 mm 2 mps 749 mmHg 89%
    01:00 +17°C° 0 mm 2 mps 749 mmHg 89%
    02:00 +16°C° 0 mm 2 mps 749 mmHg 90%
    03:00 +16°C° 0 mm 2 mps 749 mmHg 91%
    04:00 +17°C° 0 mm 2 mps 748 mmHg 89%
    05:00 +17°C° 0 mm 2 mps 748 mmHg 88%
    06:00 +18°C° 0 mm 2 mps 748 mmHg 87%
    07:00 +20°C° 0 mm 3 mps 748 mmHg 82%
    08:00 +21°C° 0 mm 3 mps 748 mmHg 77%
    09:00 +23°C° 0 mm 4 mps 748 mmHg 71%
    10:00 +25°C° 0 mm 4 mps 748 mmHg 68%
    11:00 +26°C° 0 mm 5 mps 748 mmHg 65%
    12:00 +27°C° 0 mm 5 mps 748 mmHg 62%
    13:00 +27°C° 0 mm 5 mps 747 mmHg 62%
    14:00 +28°C° 0 mm 5 mps 747 mmHg 61%
    15:00 +28°C° 0 mm 5 mps 746 mmHg 61%
    16:00 +28°C° 0 mm 5 mps 746 mmHg 64%
    17:00 +27°C° 0 mm 4 mps 746 mmHg 67%
    18:00 +27°C° 0 mm 4 mps 746 mmHg 70%
    19:00 +26°C° 0 mm 4 mps 746 mmHg 75%
    20:00 +23°C° 0 mm 4 mps 746 mmHg 80%
    21:00 +21°C° 0 mm 3 mps 746 mmHg 85%
    22:00 +21°C° 0 mm 3 mps 745 mmHg 87%
    23:00 +20°C° 0 mm 3 mps 745 mmHg 89%

    23 June, Saturday

    Time Temperature Precipitation Wind Pressure Humidity
    00:00 +19°C° 0 mm 3 mps 745 mmHg 90%
    01:00 +19°C° 0 mm 4 mps 745 mmHg 91%
    02:00 +19°C° 0 mm 4 mps 745 mmHg 91%
    03:00 +19°C° 0 mm 4 mps 745 mmHg 91%
    04:00 +19°C° 0 mm 4 mps 745 mmHg 89%
    05:00 +20°C° 0 mm 4 mps 744 mmHg 88%
    06:00 +21°C° 0 mm 5 mps 744 mmHg 87%
    07:00 +22°C° 0 mm 5 mps 744 mmHg 83%
    08:00 +23°C° 0 mm 5 mps 744 mmHg 79%
    09:00 +26°C° 0 mm 5 mps 744 mmHg 75%
    10:00 +26°C° 0.6 mm 5 mps 744 mmHg 73%
    11:00 +27°C° 0.6 mm 6 mps 744 mmHg 71%
    12:00 +28°C° 0.6 mm 6 mps 744 mmHg 68%
    13:00 +27°C° 1 mm 6 mps 744 mmHg 71%
    14:00 +26°C° 1 mm 6 mps 744 mmHg 74%
    15:00 +26°C° 1 mm 5 mps 744 mmHg 77%
    16:00 +25°C° 1.2 mm 5 mps 744 mmHg 80%
    17:00 +23°C° 1.2 mm 4 mps 744 mmHg 83%
    18:00 +22°C° 1.2 mm 3 mps 744 mmHg 86%
    19:00 +21°C° 0.6 mm 3 mps 744 mmHg 88%
    20:00 +21°C° 0.6 mm 3 mps 744 mmHg 90%
    21:00 +20°C° 0.6 mm 2 mps 744 mmHg 92%
    22:00 +19°C° 0.2 mm 3 mps 744 mmHg 94%
    23:00 +18°C° 0.2 mm 3 mps 745 mmHg 95%
    Show more